Zurück zum Katalog

THORAD AGENA D DEB

AktivLEO
NORAD 4218·DEBRIS·🇺🇸 United States

Gestartet Sep 30, 1969 von Vandenberg Space Force Base

Loading…

Nächste Überflüge (nächste 24 Stunden)

TLE

AktuellSource: Space-Track

Epoche: Sep 13, 2026, 17:51 UTC

1 04218U 69082CH  26256.74390366  .00001773  00000-0  37135-3 0  9999
2 04218  70.0970  17.4595 0030458 167.6879 192.5013 14.61115706971779

Verfolge THORAD AGENA D DEB in Echtzeit mit AllMySat

Download on the App Store